| time (UTC) | temp C | wind direction | speed KPH | gust KPH | rain 1hr cm | rain 24hr cm | rain mn cm | humidity % | barometer mb |
| 20260506092050 | 5 | 90 | 0.0 | 3.2 | 0.00 | 0.00 | 0.00 | 85 | 1014.5 |
| 20260506091047 | 5 | 90 | 4.8 | 6.4 | 0.00 | 0.00 | 0.00 | 85 | 1014.5 |
| 20260506090044 | 5 | 90 | 3.2 | 4.8 | 0.00 | 0.00 | 0.00 | 84 | 1014.7 |
| 20260506085040 | 5 | 90 | 0.0 | 4.8 | 0.00 | 0.00 | 0.00 | 84 | 1014.6 |
| 20260506084037 | 5 | 90 | 0.0 | 3.2 | 0.00 | 0.00 | 0.00 | 84 | 1014.7 |
| 20260506083033 | 5 | 90 | 1.6 | 3.2 | 0.00 | 0.00 | 0.00 | 83 | 1014.7 |
| 20260506082029 | 6 | 96 | 3.2 | 6.4 | 0.00 | 0.00 | 0.00 | 83 | 1014.5 |
| 20260506081026 | 6 | 90 | 3.2 | 4.8 | 0.00 | 0.00 | 0.00 | 84 | 1014.5 |
| 20260506073113 | 5 | 90 | 3.2 | 6.4 | 0.00 | 0.00 | 0.00 | 83 | 1013.9 |
| 20260506072110 | 6 | 170 | 1.6 | 4.8 | 0.00 | 0.00 | 0.00 | 82 | 1014.0 |
| 20260506071106 | 6 | 0.0 | 1.6 | 0.00 | 0.00 | 0.00 | 81 | 1013.8 | |
| 20260506070103 | 6 | 98 | 1.6 | 4.8 | 0.00 | 0.00 | 0.00 | 78 | 1013.7 |
| 20260506062050 | 7 | 88 | 3.2 | 8.0 | 0.00 | 0.00 | 0.00 | 76 | 1013.3 |
| 20260506061046 | 7 | 90 | 3.2 | 4.8 | 0.00 | 0.00 | 0.00 | 74 | 1013.1 |
| 20260506051027 | 10 | 90 | 4.8 | 6.4 | 0.00 | 0.00 | 0.00 | 63 | 1012.5 |
| 20260506045041 | 11 | 0.0 | 1.6 | 0.00 | 0.00 | 0.00 | 60 | 1012.4 | |
| 20260506044037 | 12 | 90 | 0.0 | 3.2 | 0.00 | 0.00 | 0.00 | 56 | 1012.2 |
| 20260506043114 | 12 | 90 | 1.6 | 3.2 | 0.00 | 0.00 | 0.00 | 54 | 1012.1 |
| 20260506042110 | 13 | 90 | 1.6 | 3.2 | 0.00 | 0.00 | 0.00 | 52 | 1012.0 |
| 20260506041107 | 14 | 0.0 | 0.0 | 0.00 | 0.00 | 0.00 | 49 | 1011.9 | |
| 20260506035100 | 15 | 0.0 | 0.0 | 0.00 | 0.00 | 0.00 | 46 | 1011.4 | |
| 20260506034056 | 15 | 0.0 | 0.0 | 0.00 | 0.00 | 0.00 | 45 | 1011.3 | |
| 20260506033113 | 16 | 45 | 0.0 | 3.2 | 0.00 | 0.00 | 0.00 | 43 | 1011.3 |
| 20260506032050 | 17 | 45 | 0.0 | 3.2 | 0.00 | 0.00 | 0.00 | 41 | 1011.0 |
| 20260506031047 | 17 | 45 | 1.6 | 3.2 | 0.00 | 0.00 | 0.00 | 41 | 1010.9 |
| 20260506030043 | 18 | 22 | 1.6 | 4.8 | 0.00 | 0.00 | 0.00 | 39 | 1010.7 |
| 20260506025040 | 18 | 320 | 1.6 | 3.2 | 0.00 | 0.00 | 0.00 | 39 | 1010.6 |
| 20260506024037 | 19 | 90 | 0.0 | 3.2 | 0.00 | 0.00 | 0.00 | 37 | 1010.6 |
| 20260506023054 | 20 | 15 | 1.6 | 4.8 | 0.00 | 0.00 | 0.00 | 35 | 1010.4 |
| 20260506022031 | 20 | 307 | 1.6 | 4.8 | 0.00 | 0.00 | 0.00 | 34 | 1010.4 |
| 20260506021047 | 21 | 344 | 3.2 | 6.4 | 0.00 | 0.00 | 0.00 | 31 | 1010.2 |
| 20260506020044 | 21 | 341 | 3.2 | 11.3 | 0.00 | 0.00 | 0.00 | 31 | 1010.2 |
| 20260506015021 | 21 | 355 | 4.8 | 12.9 | 0.00 | 0.00 | 0.00 | 29 | 1010.2 |
| 20260506014018 | 22 | 225 | 4.8 | 6.4 | 0.00 | 0.00 | 0.00 | 28 | 1010.1 |
| 20260506013115 | 22 | 349 | 4.8 | 6.4 | 0.00 | 0.00 | 0.00 | 29 | 1010.1 |
| 20260506012111 | 22 | 349 | 4.8 | 9.7 | 0.00 | 0.00 | 0.00 | 29 | 1010.0 |
| 20260506011105 | 22 | 0 | 4.8 | 12.9 | 0.00 | 0.00 | 0.00 | 29 | 1010.0 |
| 20260506005058 | 23 | 347 | 6.4 | 14.5 | 0.00 | 0.00 | 0.00 | 28 | 1009.8 |
| 20260506004055 | 23 | 311 | 4.8 | 11.3 | 0.00 | 0.00 | 0.00 | 29 | 1009.7 |
| 20260506003052 | 23 | 8 | 4.8 | 8.0 | 0.00 | 0.00 | 0.00 | 27 | 1009.6 |
| 20260506002108 | 23 | 320 | 6.4 | 14.5 | 0.00 | 0.00 | 0.00 | 27 | 1009.4 |
| 20260506001045 | 23 | 330 | 8.0 | 12.9 | 0.00 | 0.00 | 0.00 | 26 | 1009.3 |
| 20260506000042 | 24 | 331 | 6.4 | 12.9 | 0.00 | 0.00 | 0.00 | 26 | 1009.3 |
| 20260505235039 | 24 | 350 | 6.4 | 11.3 | 0.00 | 0.00 | 0.00 | 26 | 1009.3 |
| 20260505234035 | 24 | 350 | 4.8 | 11.3 | 0.00 | 0.00 | 0.00 | 26 | 1009.2 |
| 20260505233031 | 25 | 338 | 4.8 | 6.4 | 0.00 | 0.00 | 0.00 | 26 | 1009.2 |
| 20260505232028 | 25 | 356 | 6.4 | 12.9 | 0.00 | 0.00 | 0.00 | 24 | 1009.3 |
| 20260505231025 | 25 | 356 | 4.8 | 12.9 | 0.00 | 0.00 | 0.00 | 23 | 1009.2 |
| 20260505230041 | 25 | 9 | 3.2 | 6.4 | 0.00 | 0.00 | 0.00 | 23 | 1009.2 |
| 20260505225018 | 25 | 354 | 6.4 | 9.7 | 0.00 | 0.00 | 0.00 | 22 | 1009.1 |
| 20260505224135 | 25 | 331 | 8.0 | 16.1 | 0.00 | 0.00 | 0.00 | 23 | 1009.1 |
| 20260505223111 | 25 | 329 | 8.0 | 12.9 | 0.00 | 0.00 | 0.00 | 23 | 1009.0 |
| 20260505222108 | 25 | 350 | 6.4 | 11.3 | 0.00 | 0.00 | 0.00 | 23 | 1009.1 |
| 20260505221125 | 26 | 307 | 4.8 | 9.7 | 0.00 | 0.00 | 0.00 | 23 | 1009.0 |
| 20260505215116 | 26 | 299 | 4.8 | 11.3 | 0.00 | 0.00 | 0.00 | 24 | 1009.1 |
| 20260505214053 | 26 | 7 | 6.4 | 11.3 | 0.00 | 0.00 | 0.00 | 25 | 1009.2 |
| 20260505213050 | 26 | 351 | 4.8 | 6.4 | 0.00 | 0.00 | 0.00 | 25 | 1009.1 |
| 20260505212047 | 26 | 25 | 6.4 | 11.3 | 0.00 | 0.00 | 0.00 | 26 | 1009.2 |
| 20260505211043 | 26 | 311 | 3.2 | 8.0 | 0.00 | 0.00 | 0.00 | 27 | 1009.1 |
| 20260505210040 | 25 | 15 | 4.8 | 9.7 | 0.00 | 0.00 | 0.00 | 27 | 1009.2 |
| 20260505205036 | 25 | 344 | 4.8 | 12.9 | 0.00 | 0.00 | 0.00 | 28 | 1009.1 |
| 20260505204033 | 26 | 328 | 6.4 | 11.3 | 0.00 | 0.00 | 0.00 | 27 | 1009.2 |
| 20260505203030 | 26 | 5 | 4.8 | 11.3 | 0.00 | 0.00 | 0.00 | 27 | 1009.2 |
| 20260505202026 | 26 | 10 | 4.8 | 8.0 | 0.00 | 0.00 | 0.00 | 29 | 1009.2 |
| 20260505201024 | 25 | 325 | 4.8 | 12.9 | 0.00 | 0.00 | 0.00 | 33 | 1009.2 |
| 20260505200019 | 25 | 0 | 4.8 | 8.0 | 0.00 | 0.00 | 0.00 | 34 | 1009.2 |
| 20260505195015 | 24 | 30 | 3.2 | 6.4 | 0.00 | 0.00 | 0.00 | 33 | 1009.1 |
| 20260505194112 | 24 | 5 | 1.6 | 6.4 | 0.00 | 0.00 | 0.00 | 35 | 1009.2 |
| 20260505193109 | 23 | 276 | 4.8 | 8.0 | 0.00 | 0.00 | 0.00 | 36 | 1009.1 |
| 20260505192106 | 23 | 297 | 6.4 | 12.9 | 0.00 | 0.00 | 0.00 | 39 | 1009.2 |
| 20260505191123 | 23 | 266 | 6.4 | 12.9 | 0.00 | 0.00 | 0.00 | 40 | 1009.2 |
| 20260505190059 | 23 | 250 | 4.8 | 9.7 | 0.00 | 0.00 | 0.00 | 43 | 1009.2 |
| 20260505185057 | 22 | 254 | 4.8 | 9.7 | 0.00 | 0.00 | 0.00 | 46 | 1009.4 |
| 20260505184053 | 22 | 275 | 3.2 | 9.7 | 0.00 | 0.00 | 0.00 | 47 | 1009.5 |
| 20260505183050 | 21 | 234 | 4.8 | 8.0 | 0.00 | 0.00 | 0.00 | 48 | 1009.6 |
| 20260505182046 | 21 | 234 | 4.8 | 6.4 | 0.00 | 0.00 | 0.00 | 46 | 1009.7 |
| 20260505181043 | 21 | 280 | 4.8 | 8.0 | 0.00 | 0.00 | 0.00 | 49 | 1009.9 |
| 20260505180040 | 20 | 273 | 4.8 | 6.4 | 0.00 | 0.00 | 0.00 | 52 | 1009.9 |
| 20260505175057 | 20 | 263 | 3.2 | 9.7 | 0.00 | 0.00 | 0.00 | 50 | 1009.9 |
| 20260505174053 | 20 | 281 | 4.8 | 8.0 | 0.00 | 0.00 | 0.00 | 53 | 1010.0 |
| 20260505173030 | 19 | 277 | 4.8 | 9.7 | 0.00 | 0.00 | 0.00 | 54 | 1010.0 |
| 20260505172027 | 18 | 257 | 3.2 | 6.4 | 0.00 | 0.00 | 0.00 | 55 | 1010.1 |
| 20260505171024 | 18 | 238 | 3.2 | 6.4 | 0.00 | 0.00 | 0.00 | 56 | 1010.0 |
| 20260505170020 | 17 | 218 | 4.8 | 8.0 | 0.00 | 0.00 | 0.00 | 55 | 1010.1 |
| 20260505165017 | 17 | 255 | 4.8 | 8.0 | 0.00 | 0.00 | 0.00 | 56 | 1010.2 |
| 20260505164114 | 17 | 270 | 4.8 | 8.0 | 0.00 | 0.00 | 0.00 | 55 | 1010.2 |
| 20260505163111 | 16 | 269 | 6.4 | 9.7 | 0.00 | 0.00 | 0.00 | 54 | 1010.2 |
| 20260505162108 | 16 | 252 | 3.2 | 6.4 | 0.00 | 0.00 | 0.00 | 55 | 1010.2 |
| 20260505161105 | 16 | 259 | 4.8 | 8.0 | 0.00 | 0.00 | 0.00 | 54 | 1010.2 |
| 20260505153052 | 15 | 225 | 0.0 | 3.2 | 0.00 | 0.00 | 0.00 | 62 | 1010.2 |
| 20260505152049 | 14 | 0.0 | 3.2 | 0.00 | 0.00 | 0.00 | 65 | 1010.1 | |
| 20260505151045 | 13 | 225 | 0.0 | 3.2 | 0.00 | 0.00 | 0.00 | 68 | 1010.2 |
| 20260505125030 | 2 | 135 | 1.6 | 4.8 | 0.00 | 0.00 | 0.00 | 85 | 1009.3 |
| 20260505124027 | 2 | 135 | 3.2 | 4.8 | 0.00 | 0.00 | 0.00 | 85 | 1009.1 |
| 20260505123023 | 3 | 135 | 1.6 | 4.8 | 0.00 | 0.00 | 0.00 | 90 | 1009.2 |
| 20260505122019 | 3 | 0.0 | 1.6 | 0.00 | 0.00 | 0.00 | 90 | 1009.0 | |
| 20260505121016 | 3 | 135 | 0.0 | 3.2 | 0.00 | 0.00 | 0.00 | 90 | 1009.0 |
| 20260505120113 | 3 | 135 | 0.0 | 3.2 | 0.00 | 0.00 | 0.00 | 89 | 1008.9 |
| 20260505115249 | 3 | 135 | 1.6 | 4.8 | 0.00 | 0.00 | 0.00 | 89 | 1008.7 |
| 20260505114106 | 3 | 135 | 1.6 | 3.2 | 0.00 | 0.00 | 0.00 | 88 | 1008.8 |
| 20260505113103 | 3 | 135 | 1.6 | 3.2 | 0.00 | 0.00 | 0.00 | 87 | 1008.8 |
| 20260505112059 | 3 | 135 | 1.6 | 3.2 | 0.00 | 0.00 | 0.00 | 87 | 1008.8 |
| 20260505111056 | 3 | 0.0 | 3.2 | 0.00 | 0.00 | 0.00 | 87 | 1008.6 | |
| 20260505102039 | 4 | 135 | 0.0 | 3.2 | 0.00 | 0.00 | 0.00 | 86 | 1008.3 |
| 20260505101036 | 4 | 0.0 | 1.6 | 0.00 | 0.00 | 0.00 | 85 | 1008.4 | |
| 20260505100032 | 4 | 0.0 | 1.6 | 0.00 | 0.00 | 0.00 | 84 | 1008.3 | |
| 20260505095058 | 4 | 0.0 | 1.6 | 0.00 | 0.00 | 0.00 | 84 | 1008.4 | |
| 20260505094055 | 5 | 135 | 0.0 | 3.2 | 0.00 | 0.00 | 0.00 | 83 | 1008.2 |
| 20260505093049 | 5 | 147 | 1.6 | 3.2 | 0.00 | 0.00 | 0.00 | 82 | 1008.4 |